Weather in Varnavino

Russia / Nizhny Novgorod Oblast'     57°24′06″N   45°05′16″E
temp.,
°C
wind,
m/s
gust,
m/s
humid.,
%
clouds,
%
prec.,
mm/h
press.,
hPa
HPBL,
m
19 april, mon
mon1900:00+1ene4127693 0.0 1029518
03:000ene51279100 0.0 1030463
06:00−1ene5127829 0.0 1031553
09:00+4e710525 0.0 1031938
12:00+6e79405 0.0 10311550
15:00+7e693711 0.0 10311628
18:00+5e594621 0.0 10311199
21:00+1ene412612 0.0 1032379
20 april, tue
tue2000:000ene412680 0.0 1032347
03:00−1ene412660 0.0 1032328
06:000e412560 0.0 1032445
09:00+6ese69400 0.0 1031875
12:00+9ese68360 0.0 10301578
15:00+10ese69332 0.0 10281675
18:00+8ese510410 0.0 1027709
21:00+3e41256100 0.0 1026372
21 april, wed
wed2100:00+3ese6155397 0.0 1024584
03:00+2ese61654100 0.0 1022671
06:00+3ese71751100 0.0 1019875
09:00+1se81982100 1.6 1018930
12:00+1se81894100 3.2 1016876
15:00+2se81790100 3.9 1015899
18:00+3se81792100 0.1 1014943
21:00+4sse81693100 0.3 1015948
22 april, thu
thu2200:00+4s61395100 0.1 1016823
03:00+5s51195100 0.4 1018659
06:00+4sse4109672 0.0 1018340
09:00+4sse5996100 0.8 1018657
12:00+9s6107782 0.3 10181265
15:00+11sw6116513 0.9 10191484
18:00+9ssw487346 0.2 1020416
21:00+6s310896 0.2 1022189
23 april, fri
fri2300:00+4s37955 0.1 1022138
03:00+4sse24955 0.1 102369
06:00+5sse39945 0.0 1023221
09:00+11s5107018 0.1 1023597
12:00+14s685453 0.5 10221670
15:00+13sse486098 0.8 1021817
18:00+12se4106688 0.0 1021530
21:00+10se5127892 0.2 1021503